Find Tian Lian 1-05

NORAD ID: 49011 Int'l Des: 2021-063 Owner: CAST Country: CN operational
HEOCIRCULARGSO

实时位置

正在加载3D地球...

关于 Tian Lian 1-05

正在加载描述...

即将过境

Passes for default location (London). Set your location on the main map for personalized predictions.

高度历史

Loading altitude history...

两行轨道根数

1 49011U 21063A 26106.02038875 .00000116 00000-0 00000-0 0 9993
2 49011 1.4326 81.1459 0002967 254.3920 252.8008 1.00272792 17452
Epoch: Apr 16, 2026 • Age: 14 hours

当前状态

高度 35790.1 km
速度 3.07 km/s
星下点 0.12°N, 16.85°E
发射日期 Jul 6, 2021
运行时间 4.7 years
类型 other

技术详情

分类 Payload
质量 2500.00 kg
干质量 1050.00 kg
总质量 2500.00 kg
长度 6.00 m
直径 1.70 m
跨度 18.10 m
形状 Box + 2 Pan + Dish
制造商 CAST
平台类型 DFH-3
阶段状态 In Orbit
所有者/国家 CAST/CN

Most Searched